GFSSE_prec_precacc24_060.txt.gz
Total_Precipitation_Accumulation
0.63 0.43 0.15 0.03 0.02 0.01 0.00 0.01 0.00 0.00 0.00 0.00 0.00 0.00 0.00 0.00 0.00 0.00 0.00 0.00 0.01 0.01 0.01 0.01 0.01 0.00 0.01 0.01 0.01 0.00 0.00 0.00 0.01 0.02 0.04 0.04 0.03 0.02 0.02 0.02 0.03 0.05 0.08
1.64 1.01 0.56 0.17 0.02 0.01 0.00 0.00 0.00 0.00 0.00 0.00 0.00 0.00 0.00 0.00 0.00 0.00 0.00 0.00 0.00 0.01 0.01 0.00 0.00 0.00 0.00 0.00 0.00 0.00 0.00 0.00 0.00 0.00 0.01 0.01 0.01 0.01 0.01 0.01 0.02 0.03 0.05
1.44 1.74 1.41 0.56 0.23 0.02 0.00 0.00 0.00 0.00 0.00 0.00 0.00 0.00 0.00 0.00 0.00 0.00 0.00 0.00 0.00 0.00 0.00 0.00 0.00 0.00 0.00 0.00 0.00 0.00 0.00 0.00 0.00 0.00 0.00 0.00 0.00 0.01 0.00 0.00 0.00 0.00 0.01
0.31 0.35 1.85 1.97 0.72 0.23 0.07 0.00 0.00 0.00 0.00 0.01 0.00 0.00 0.00 0.00 0.00 0.00 0.00 0.00 0.00 0.00 0.00 0.00 0.00 0.00 0.00 0.00 0.00 0.00 0.00 0.00 0.00 0.00 0.00 0.00 0.00 0.02 0.03 0.02 0.02 0.01 0.01
0.43 0.44 0.47 0.99 1.14 0.63 0.18 0.05 0.00 0.00 0.00 0.01 0.01 0.00 0.00 0.00 0.00 0.00 0.00 0.00 0.00 0.00 0.00 0.00 0.00 0.00 0.00 0.00 0.00 0.00 0.00 0.00 0.00 0.00 0.00 0.00 0.00 0.01 0.02 0.02 0.02 0.02 0.02
1.01 1.03 1.07 0.95 0.75 0.90 0.50 0.18 0.02 0.00 0.00 0.01 0.01 0.00 0.00 0.00 0.00 0.00 0.00 0.00 0.00 0.01 0.00 0.00 0.00 0.00 0.00 0.00 0.00 0.00 0.00 0.00 0.00 0.00 0.00 0.00 0.00 0.01 0.01 0.01 0.01 0.01 0.02
1.51 1.72 1.29 2.08 1.70 1.37 0.75 0.52 0.17 0.03 0.00 0.02 0.02 0.00 0.00 0.00 0.00 0.00 0.00 0.00 0.00 0.00 0.00 0.00 0.00 0.00 0.00 0.00 0.00 0.00 0.00 0.00 0.00 0.00 0.00 0.00 0.00 0.00 0.00 0.00 0.00 0.00 0.00
1.24 1.83 1.97 2.66 3.92 2.87 2.00 1.19 0.52 0.12 0.01 0.04 0.03 0.00 0.00 0.00 0.00 0.00 0.00 0.00 0.00 0.00 0.00 0.00 0.00 0.00 0.00 0.00 0.00 0.00 0.00 0.00 0.00 0.00 0.00 0.00 0.00 0.00 0.00 0.00 0.00 0.00 0.00
1.67 2.31 1.90 2.86 3.86 4.41 4.72 2.86 1.25 0.44 0.08 0.07 0.06 0.00 0.00 0.00 0.01 0.00 0.00 0.00 0.00 0.00 0.00 0.00 0.00 0.00 0.00 0.00 0.00 0.00 0.00 0.00 0.00 0.00 0.00 0.00 0.00 0.00 0.00 0.00 0.00 0.00 0.00
1.31 2.87 2.32 2.91 4.95 3.79 4.06 3.03 1.26 0.80 0.27 0.10 0.06 0.01 0.00 0.00 0.00 0.00 0.00 0.00 0.01 0.00 0.00 0.00 0.00 0.00 0.00 0.00 0.00 0.00 0.00 0.00 0.00 0.00 0.00 0.00 0.00 0.00 0.00 0.00 0.00 0.00 0.00
0.94 1.49 2.03 3.41 4.82 5.47 4.03 2.66 1.37 0.94 0.74 0.28 0.07 0.02 0.00 0.00 0.00 0.00 0.00 0.00 0.01 0.00 0.00 0.00 0.00 0.00 0.00 0.00 0.00 0.00 0.00 0.00 0.00 0.00 0.00 0.00 0.00 0.00 0.00 0.00 0.00 0.00 0.00
0.60 1.30 1.54 1.43 1.47 2.03 2.12 2.04 1.32 1.09 0.94 0.72 0.16 0.05 0.00 0.00 0.00 0.00 0.00 0.00 0.00 0.00 0.00 0.00 0.00 0.00 0.00 0.00 0.00 0.00 0.00 0.00 0.00 0.00 0.00 0.00 0.00 0.00 0.00 0.00 0.00 0.00 0.00
0.47 0.95 0.90 0.42 0.28 0.45 0.47 0.65 0.80 0.89 0.77 0.89 0.50 0.13 0.02 0.01 0.00 0.00 0.00 0.00 0.00 0.00 0.00 0.00 0.00 0.00 0.00 0.00 0.00 0.00 0.00 0.00 0.00 0.00 0.00 0.00 0.00 0.01 0.01 0.01 0.01 0.01 0.00
0.41 0.55 0.47 0.20 0.14 0.13 0.13 0.22 0.36 0.48 0.72 0.55 0.46 0.13 0.02 0.00 0.00 0.00 0.00 0.00 0.00 0.00 0.00 0.00 0.00 0.00 0.00 0.00 0.00 0.00 0.00 0.00 0.00 0.00 0.00 0.00 0.00 0.01 0.03 0.02 0.01 0.01 0.00
0.42 0.39 0.43 0.33 0.18 0.08 0.06 0.12 0.25 0.38 0.60 0.38 0.33 0.13 0.00 0.00 0.00 0.00 0.00 0.00 0.00 0.00 0.00 0.00 0.00 0.00 0.00 0.00 0.00 0.00 0.00 0.00 0.00 0.00 0.00 0.00 0.00 0.00 0.02 0.03 0.03 0.01 0.00
0.28 0.39 0.41 0.37 0.31 0.20 0.10 0.05 0.10 0.30 0.38 0.31 0.20 0.05 0.00 0.00 0.00 0.00 0.00 0.00 0.00 0.00 0.00 0.00 0.00 0.00 0.00 0.00 0.00 0.00 0.00 0.00 0.00 0.00 0.00 0.00 0.00 0.00 0.01 0.04 0.06 0.03 0.01
0.17 0.30 0.50 0.55 0.32 0.24 0.16 0.18 0.14 0.20 0.26 0.19 0.15 0.03 0.01 0.00 0.00 0.01 0.01 0.01 0.00 0.00 0.00 0.00 0.00 0.00 0.00 0.00 0.00 0.00 0.00 0.00 0.00 0.00 0.00 0.00 0.00 0.00 0.01 0.02 0.04 0.03 0.02
0.04 0.19 0.48 0.53 0.47 0.30 0.13 0.13 0.12 0.12 0.17 0.12 0.11 0.02 0.01 0.01 0.02 0.02 0.03 0.01 0.00 0.00 0.00 0.00 0.00 0.00 0.00 0.00 0.00 0.00 0.00 0.00 0.00 0.00 0.00 0.00 0.00 0.00 0.00 0.00 0.01 0.02 0.02
0.00 0.05 0.42 0.60 0.40 0.21 0.14 0.13 0.07 0.06 0.10 0.08 0.06 0.07 0.04 0.02 0.08 0.02 0.07 0.09 0.00 0.00 0.00 0.00 0.00 0.00 0.00 0.00 0.00 0.00 0.00 0.00 0.00 0.00 0.00 0.00 0.00 0.00 0.00 0.00 0.00 0.00 0.01
0.00 0.00 0.14 0.67 0.49 0.28 0.20 0.12 0.22 0.12 0.05 0.09 0.09 0.18 0.13 0.03 0.03 0.04 0.10 0.06 0.00 0.00 0.00 0.00 0.00 0.00 0.00 0.00 0.00 0.00 0.00 0.00 0.00 0.00 0.00 0.00 0.00 0.00 0.00 0.00 0.00 0.00 0.00
0.00 0.00 0.04 0.34 0.54 0.31 0.27 0.16 0.23 0.22 0.09 0.08 0.14 0.22 0.19 0.06 0.09 0.14 0.13 0.06 0.01 0.01 0.02 0.00 0.00 0.00 0.00 0.00 0.00 0.00 0.00 0.00 0.00 0.00 0.00 0.00 0.00 0.00 0.00 0.00 0.00 0.00 0.00
0.00 0.00 0.00 0.15 0.27 0.28 0.25 0.16 0.10 0.14 0.17 0.08 0.09 0.11 0.09 0.10 0.08 0.14 0.14 0.11 0.05 0.05 0.04 0.03 0.02 0.02 0.01 0.00 0.00 0.00 0.00 0.00 0.00 0.00 0.00 0.00 0.00 0.00 0.00 0.00 0.00 0.00 0.00
0.00 0.00 0.00 0.01 0.06 0.11 0.10 0.19 0.16 0.17 0.16 0.18 0.09 0.10 0.08 0.09 0.07 0.14 0.08 0.09 0.16 0.07 0.04 0.06 0.05 0.04 0.03 0.03 0.01 0.00 0.00 0.00 0.00 0.00 0.00 0.00 0.00 0.00 0.00 0.00 0.00 0.00 0.00
0.00 0.00 0.00 0.00 0.00 0.02 0.02 0.07 0.11 0.13 0.06 0.03 0.05 0.03 0.05 0.03 0.07 0.20 0.09 0.05 0.17 0.14 0.05 0.05 0.06 0.06 0.05 0.05 0.04 0.02 0.01 0.01 0.01 0.01 0.00 0.00 0.00 0.00 0.00 0.00 0.00 0.00 0.00
0.00 0.00 0.00 0.00 0.00 0.01 0.04 0.03 0.04 0.03 0.05 0.10 0.07 0.05 0.04 0.03 0.07 0.17 0.09 0.08 0.08 0.17 0.13 0.08 0.06 0.08 0.08 0.06 0.04 0.02 0.01 0.02 0.03 0.04 0.06 0.04 0.02 0.00 0.00 0.00 0.00 0.00 0.00
0.00 0.00 0.00 0.00 0.00 0.00 0.03 0.05 0.06 0.04 0.04 0.19 0.21 0.12 0.13 0.10 0.14 0.28 0.27 0.18 0.11 0.09 0.14 0.12 0.10 0.08 0.08 0.06 0.07 0.05 0.03 0.02 0.02 0.03 0.07 0.09 0.08 0.01 0.00 0.00 0.00 0.00 0.00

GFSSE_prec_precacc24_063.txt.gz
Total_Precipitation_Accumulation
0.62 0.43 0.14 0.02 0.01 0.00 0.00 0.01 0.00 0.00 0.00 0.00 0.00 0.00 0.00 0.00 0.00 0.00 0.00 0.00 0.01 0.02 0.02 0.01 0.01 0.01 0.01 0.01 0.01 0.00 0.00 0.01 0.01 0.02 0.05 0.05 0.04 0.03 0.02 0.03 0.04 0.05 0.08
1.64 1.00 0.57 0.17 0.02 0.01 0.00 0.00 0.00 0.00 0.00 0.00 0.00 0.00 0.00 0.00 0.00 0.00 0.00 0.00 0.01 0.02 0.01 0.00 0.01 0.01 0.00 0.00 0.00 0.00 0.00 0.00 0.00 0.00 0.01 0.02 0.02 0.02 0.01 0.01 0.03 0.03 0.05
1.41 1.71 1.41 0.55 0.24 0.03 0.01 0.00 0.00 0.00 0.00 0.00 0.00 0.00 0.00 0.00 0.01 0.00 0.00 0.00 0.00 0.00 0.00 0.00 0.00 0.00 0.00 0.00 0.00 0.00 0.00 0.00 0.00 0.00 0.00 0.00 0.01 0.01 0.00 0.00 0.00 0.00 0.01
0.22 0.27 1.82 1.96 0.74 0.32 0.13 0.01 0.00 0.00 0.00 0.01 0.00 0.00 0.00 0.00 0.00 0.00 0.00 0.00 0.00 0.00 0.00 0.00 0.00 0.00 0.00 0.00 0.00 0.00 0.00 0.00 0.00 0.00 0.00 0.00 0.00 0.02 0.03 0.02 0.02 0.01 0.01
0.38 0.28 0.44 0.98 1.18 0.80 0.26 0.09 0.04 0.00 0.00 0.01 0.01 0.00 0.00 0.00 0.00 0.00 0.00 0.00 0.00 0.00 0.00 0.00 0.00 0.00 0.00 0.00 0.00 0.00 0.00 0.00 0.00 0.00 0.00 0.00 0.00 0.01 0.02 0.02 0.02 0.02 0.02
0.81 0.85 1.07 0.95 0.81 0.98 0.75 0.47 0.19 0.01 0.00 0.01 0.01 0.00 0.00 0.00 0.00 0.00 0.00 0.00 0.00 0.01 0.00 0.00 0.00 0.00 0.00 0.00 0.00 0.00 0.00 0.00 0.00 0.00 0.00 0.00 0.00 0.01 0.01 0.01 0.01 0.01 0.01
1.17 1.70 1.35 2.08 1.72 1.47 1.01 0.89 0.65 0.16 0.01 0.02 0.02 0.00 0.00 0.00 0.00 0.00 0.00 0.00 0.00 0.00 0.00 0.00 0.00 0.00 0.00 0.00 0.00 0.00 0.00 0.00 0.00 0.00 0.00 0.00 0.00 0.00 0.00 0.00 0.00 0.00 0.00
1.04 1.65 1.95 2.79 4.14 3.13 2.43 1.67 1.03 0.25 0.02 0.04 0.03 0.00 0.00 0.00 0.00 0.00 0.00 0.00 0.00 0.00 0.00 0.00 0.00 0.00 0.00 0.00 0.00 0.00 0.00 0.00 0.00 0.00 0.00 0.00 0.00 0.00 0.00 0.00 0.00 0.00 0.00
1.12 1.78 1.66 2.85 4.32 4.89 5.33 3.83 2.22 0.86 0.09 0.07 0.06 0.00 0.00 0.00 0.01 0.00 0.01 0.00 0.00 0.00 0.00 0.00 0.00 0.00 0.00 0.00 0.00 0.00 0.00 0.00 0.00 0.00 0.00 0.00 0.00 0.00 0.00 0.00 0.00 0.00 0.00
0.95 2.55 1.99 2.80 5.08 4.04 4.30 3.87 2.37 1.65 0.50 0.12 0.06 0.01 0.00 0.00 0.00 0.01 0.02 0.00 0.01 0.00 0.00 0.00 0.00 0.00 0.00 0.00 0.00 0.00 0.00 0.00 0.00 0.00 0.00 0.00 0.00 0.00 0.00 0.00 0.00 0.00 0.00
0.73 1.29 1.91 3.31 4.74 5.48 4.12 3.03 2.28 2.08 1.53 0.44 0.10 0.07 0.02 0.00 0.00 0.01 0.03 0.00 0.01 0.00 0.00 0.00 0.00 0.00 0.00 0.00 0.00 0.00 0.00 0.00 0.00 0.00 0.00 0.00 0.00 0.00 0.00 0.00 0.00 0.00 0.00
0.48 1.14 1.46 1.39 1.45 2.08 2.24 2.15 1.78 2.08 1.57 0.87 0.23 0.06 0.01 0.01 0.00 0.00 0.04 0.02 0.00 0.00 0.00 0.00 0.00 0.00 0.00 0.00 0.00 0.00 0.00 0.00 0.00 0.00 0.00 0.00 0.00 0.00 0.00 0.00 0.00 0.00 0.00
0.45 0.86 0.80 0.36 0.25 0.44 0.56 0.76 1.02 1.81 1.24 1.10 0.63 0.18 0.09 0.08 0.03 0.01 0.05 0.03 0.00 0.00 0.00 0.00 0.00 0.00 0.00 0.00 0.00 0.00 0.00 0.00 0.00 0.00 0.00 0.00 0.00 0.00 0.01 0.01 0.01 0.01 0.00
0.46 0.51 0.36 0.15 0.10 0.09 0.12 0.26 0.47 0.88 1.26 0.75 0.63 0.32 0.16 0.05 0.01 0.01 0.02 0.01 0.00 0.00 0.00 0.00 0.00 0.00 0.00 0.00 0.00 0.00 0.00 0.00 0.00 0.00 0.00 0.00 0.01 0.00 0.02 0.01 0.01 0.01 0.00
0.39 0.39 0.33 0.22 0.14 0.04 0.02 0.08 0.27 0.51 1.03 0.53 0.44 0.34 0.19 0.02 0.01 0.01 0.03 0.02 0.00 0.00 0.00 0.00 0.00 0.00 0.00 0.00 0.00 0.00 0.00 0.00 0.00 0.00 0.00 0.00 0.00 0.01 0.02 0.02 0.02 0.01 0.00
0.27 0.35 0.34 0.28 0.25 0.16 0.08 0.04 0.10 0.40 0.65 0.42 0.32 0.25 0.18 0.01 0.01 0.02 0.02 0.01 0.00 0.00 0.00 0.00 0.00 0.00 0.00 0.00 0.00 0.00 0.00 0.00 0.00 0.00 0.00 0.00 0.00 0.01 0.02 0.03 0.05 0.02 0.01
0.17 0.28 0.47 0.52 0.29 0.20 0.11 0.16 0.16 0.38 0.61 0.33 0.29 0.19 0.08 0.02 0.01 0.01 0.01 0.01 0.00 0.00 0.00 0.00 0.00 0.00 0.00 0.00 0.00 0.00 0.00 0.00 0.00 0.00 0.00 0.00 0.00 0.00 0.01 0.03 0.04 0.03 0.02
0.04 0.21 0.48 0.53 0.45 0.27 0.11 0.13 0.13 0.28 0.48 0.33 0.27 0.13 0.03 0.02 0.02 0.02 0.03 0.01 0.00 0.00 0.00 0.00 0.00 0.00 0.00 0.00 0.00 0.00 0.00 0.00 0.00 0.00 0.00 0.00 0.00 0.00 0.00 0.01 0.02 0.03 0.02
0.00 0.06 0.43 0.58 0.37 0.19 0.11 0.12 0.08 0.12 0.29 0.27 0.21 0.10 0.05 0.02 0.07 0.02 0.07 0.09 0.00 0.00 0.00 0.00 0.00 0.00 0.00 0.00 0.00 0.00 0.00 0.00 0.00 0.00 0.00 0.00 0.00 0.00 0.00 0.00 0.00 0.01 0.03
0.00 0.01 0.14 0.67 0.47 0.26 0.17 0.12 0.23 0.14 0.18 0.17 0.16 0.20 0.13 0.03 0.03 0.04 0.10 0.06 0.00 0.00 0.00 0.00 0.00 0.00 0.00 0.00 0.00 0.00 0.00 0.00 0.00 0.00 0.00 0.00 0.00 0.00 0.00 0.00 0.00 0.00 0.00
0.00 0.01 0.04 0.34 0.53 0.27 0.25 0.16 0.24 0.23 0.15 0.09 0.13 0.21 0.18 0.06 0.09 0.14 0.13 0.06 0.01 0.01 0.02 0.00 0.00 0.00 0.00 0.00 0.00 0.00 0.00 0.00 0.00 0.00 0.00 0.00 0.00 0.00 0.00 0.00 0.00 0.00 0.00
0.00 0.00 0.01 0.15 0.28 0.32 0.27 0.18 0.10 0.15 0.20 0.10 0.09 0.10 0.11 0.11 0.08 0.14 0.14 0.11 0.05 0.05 0.04 0.03 0.02 0.02 0.01 0.00 0.00 0.00 0.00 0.00 0.00 0.00 0.00 0.00 0.00 0.00 0.00 0.00 0.00 0.00 0.00
0.00 0.00 0.01 0.01 0.06 0.13 0.23 0.22 0.18 0.19 0.17 0.23 0.13 0.13 0.09 0.10 0.08 0.14 0.08 0.09 0.16 0.07 0.06 0.06 0.05 0.04 0.03 0.03 0.01 0.00 0.01 0.00 0.00 0.00 0.00 0.00 0.00 0.00 0.00 0.00 0.00 0.00 0.00
0.00 0.00 0.00 0.01 0.01 0.01 0.03 0.08 0.11 0.14 0.06 0.03 0.05 0.04 0.05 0.03 0.10 0.21 0.08 0.05 0.17 0.15 0.07 0.07 0.06 0.06 0.08 0.08 0.06 0.03 0.02 0.03 0.04 0.05 0.00 0.00 0.00 0.00 0.00 0.00 0.00 0.00 0.00
0.00 0.00 0.00 0.00 0.01 0.01 0.01 0.03 0.04 0.04 0.05 0.06 0.07 0.06 0.04 0.02 0.07 0.21 0.10 0.08 0.11 0.18 0.16 0.14 0.10 0.08 0.09 0.17 0.10 0.03 0.01 0.02 0.03 0.07 0.08 0.05 0.03 0.02 0.01 0.00 0.00 0.00 0.00
0.00 0.00 0.00 0.00 0.00 0.01 0.01 0.03 0.05 0.03 0.03 0.10 0.17 0.10 0.11 0.09 0.13 0.28 0.28 0.18 0.14 0.13 0.21 0.14 0.12 0.09 0.08 0.08 0.15 0.08 0.05 0.03 0.02 0.03 0.07 0.09 0.14 0.10 0.04 0.03 0.01 0.00 0.00

GFSSE_prec_precacc24_069.txt.gz
Total_Precipitation_Accumulation
0.06 0.19 0.10 0.01 0.01 0.00 0.00 0.01 0.00 0.00 0.00 0.00 0.00 0.00 0.00 0.00 0.00 0.00 0.00 0.00 0.00 0.01 0.02 0.02 0.02 0.02 0.01 0.01 0.01 0.00 0.00 0.01 0.01 0.02 0.06 0.08 0.06 0.05 0.03 0.04 0.04 0.05 0.09
0.03 0.11 0.40 0.14 0.02 0.01 0.01 0.01 0.00 0.00 0.00 0.00 0.00 0.00 0.00 0.00 0.00 0.00 0.00 0.00 0.00 0.01 0.01 0.02 0.02 0.01 0.01 0.00 0.00 0.00 0.00 0.00 0.00 0.01 0.03 0.05 0.04 0.03 0.02 0.01 0.04 0.04 0.05
0.08 0.42 0.62 0.44 0.23 0.05 0.02 0.01 0.00 0.00 0.00 0.00 0.00 0.00 0.00 0.00 0.01 0.00 0.00 0.00 0.00 0.01 0.01 0.01 0.01 0.01 0.00 0.00 0.00 0.00 0.00 0.00 0.00 0.00 0.00 0.01 0.02 0.03 0.01 0.01 0.01 0.01 0.02
0.08 0.09 0.81 1.57 0.68 0.34 0.14 0.04 0.02 0.00 0.00 0.01 0.00 0.00 0.00 0.00 0.01 0.01 0.02 0.01 0.00 0.01 0.02 0.01 0.01 0.01 0.00 0.00 0.00 0.00 0.00 0.00 0.00 0.00 0.00 0.00 0.01 0.04 0.03 0.02 0.02 0.02 0.01
0.11 0.07 0.16 0.69 1.01 0.77 0.29 0.13 0.07 0.00 0.00 0.01 0.01 0.00 0.00 0.00 0.00 0.01 0.02 0.02 0.01 0.01 0.01 0.01 0.01 0.01 0.00 0.00 0.00 0.00 0.00 0.00 0.00 0.00 0.00 0.00 0.00 0.02 0.02 0.02 0.02 0.01 0.01
0.20 0.27 0.40 0.33 0.64 0.88 0.77 0.71 0.42 0.08 0.01 0.03 0.02 0.00 0.00 0.00 0.00 0.00 0.01 0.01 0.02 0.01 0.01 0.01 0.00 0.00 0.00 0.00 0.00 0.00 0.00 0.00 0.00 0.00 0.00 0.00 0.00 0.01 0.01 0.01 0.01 0.01 0.00
0.47 1.09 0.64 1.11 1.27 1.44 1.16 1.34 1.40 0.92 0.18 0.23 0.13 0.03 0.03 0.00 0.00 0.00 0.00 0.00 0.01 0.01 0.01 0.01 0.00 0.00 0.00 0.00 0.00 0.00 0.00 0.00 0.00 0.00 0.00 0.00 0.00 0.01 0.00 0.00 0.00 0.00 0.00
0.73 1.41 1.21 1.70 3.29 3.17 2.45 2.30 2.17 1.86 1.15 0.51 0.22 0.12 0.14 0.03 0.00 0.01 0.00 0.00 0.00 0.00 0.01 0.00 0.00 0.00 0.00 0.00 0.00 0.00 0.00 0.00 0.00 0.00 0.00 0.00 0.00 0.00 0.00 0.00 0.00 0.00 0.00
0.63 1.26 1.39 1.89 3.86 4.94 5.27 4.21 3.64 3.11 2.92 1.71 0.54 0.16 0.07 0.02 0.01 0.01 0.01 0.00 0.00 0.00 0.00 0.00 0.00 0.00 0.00 0.00 0.00 0.00 0.00 0.00 0.00 0.00 0.00 0.00 0.00 0.00 0.00 0.00 0.00 0.00 0.00
0.34 1.04 1.13 1.73 3.59 3.41 4.03 3.96 3.30 3.92 2.68 2.55 2.00 0.73 0.22 0.01 0.00 0.01 0.02 0.00 0.01 0.01 0.00 0.00 0.00 0.00 0.00 0.00 0.00 0.00 0.00 0.00 0.00 0.00 0.00 0.00 0.00 0.00 0.00 0.00 0.00 0.00 0.00
0.31 0.59 1.09 2.60 3.60 4.30 3.66 2.98 2.41 2.84 4.55 2.22 2.34 1.69 0.57 0.02 0.01 0.01 0.04 0.00 0.01 0.00 0.00 0.00 0.00 0.00 0.00 0.00 0.00 0.00 0.00 0.00 0.00 0.00 0.00 0.01 0.00 0.00 0.00 0.00 0.00 0.00 0.00
0.33 0.92 1.23 1.19 1.22 1.76 2.09 2.07 1.70 2.24 3.82 3.27 2.29 1.52 0.35 0.03 0.03 0.02 0.06 0.02 0.00 0.00 0.00 0.00 0.00 0.00 0.00 0.00 0.00 0.00 0.00 0.00 0.00 0.00 0.00 0.00 0.00 0.00 0.00 0.00 0.01 0.00 0.00
0.35 0.77 0.72 0.24 0.09 0.25 0.48 0.75 1.00 1.98 2.42 2.85 1.87 1.27 0.29 0.10 0.10 0.07 0.07 0.03 0.00 0.00 0.00 0.00 0.00 0.00 0.00 0.00 0.00 0.00 0.00 0.00 0.00 0.00 0.00 0.00 0.00 0.00 0.01 0.01 0.01 0.01 0.00
0.38 0.32 0.32 0.15 0.08 0.03 0.10 0.26 0.48 1.02 2.12 1.74 1.73 1.08 0.48 0.09 0.05 0.06 0.02 0.01 0.00 0.00 0.00 0.00 0.00 0.00 0.00 0.00 0.00 0.00 0.00 0.00 0.00 0.00 0.00 0.00 0.01 0.00 0.01 0.02 0.01 0.01 0.00
0.33 0.27 0.15 0.13 0.09 0.03 0.02 0.05 0.20 0.48 1.78 1.11 1.82 0.96 0.48 0.06 0.03 0.03 0.03 0.02 0.00 0.00 0.00 0.00 0.00 0.00 0.00 0.00 0.00 0.00 0.00 0.00 0.00 0.00 0.00 0.00 0.01 0.01 0.01 0.01 0.02 0.01 0.00
0.25 0.29 0.26 0.16 0.09 0.03 0.01 0.01 0.07 0.36 0.89 0.90 1.45 0.69 0.36 0.06 0.04 0.04 0.05 0.02 0.00 0.00 0.00 0.00 0.00 0.00 0.00 0.00 0.00 0.00 0.00 0.00 0.00 0.00 0.00 0.00 0.00 0.01 0.02 0.02 0.02 0.02 0.01
0.15 0.24 0.34 0.37 0.13 0.07 0.01 0.02 0.03 0.31 0.62 0.54 0.75 0.46 0.21 0.07 0.03 0.03 0.04 0.04 0.00 0.00 0.00 0.00 0.00 0.00 0.00 0.00 0.00 0.00 0.00 0.00 0.00 0.00 0.00 0.00 0.00 0.00 0.01 0.03 0.03 0.02 0.02
0.04 0.19 0.43 0.43 0.36 0.20 0.05 0.04 0.03 0.22 0.49 0.47 0.47 0.29 0.11 0.06 0.04 0.05 0.05 0.02 0.00 0.00 0.00 0.00 0.00 0.00 0.00 0.00 0.00 0.00 0.00 0.00 0.00 0.00 0.00 0.00 0.00 0.00 0.00 0.01 0.02 0.03 0.02
0.00 0.06 0.43 0.57 0.36 0.17 0.07 0.08 0.07 0.13 0.34 0.33 0.30 0.15 0.06 0.04 0.03 0.02 0.07 0.07 0.02 0.03 0.00 0.00 0.00 0.00 0.00 0.00 0.00 0.00 0.00 0.00 0.00 0.00 0.00 0.00 0.00 0.00 0.00 0.00 0.00 0.01 0.03
0.00 0.01 0.15 0.67 0.47 0.25 0.16 0.11 0.23 0.16 0.26 0.24 0.22 0.19 0.06 0.02 0.02 0.02 0.03 0.08 0.08 0.05 0.02 0.00 0.00 0.00 0.00 0.00 0.00 0.00 0.00 0.00 0.00 0.00 0.00 0.00 0.00 0.00 0.00 0.00 0.00 0.00 0.00
0.00 0.01 0.05 0.35 0.53 0.26 0.23 0.16 0.24 0.24 0.19 0.17 0.16 0.15 0.09 0.02 0.03 0.02 0.02 0.07 0.02 0.07 0.06 0.01 0.00 0.00 0.00 0.00 0.00 0.00 0.00 0.00 0.00 0.00 0.00 0.00 0.00 0.00 0.00 0.00 0.00 0.00 0.00
0.00 0.00 0.01 0.17 0.29 0.32 0.27 0.18 0.10 0.16 0.22 0.13 0.11 0.09 0.07 0.03 0.01 0.06 0.08 0.06 0.03 0.07 0.09 0.04 0.02 0.02 0.01 0.00 0.00 0.00 0.00 0.00 0.00 0.00 0.00 0.00 0.00 0.00 0.00 0.00 0.00 0.00 0.00
0.00 0.00 0.01 0.03 0.07 0.12 0.27 0.24 0.21 0.20 0.20 0.26 0.15 0.07 0.03 0.04 0.02 0.02 0.05 0.07 0.09 0.07 0.08 0.07 0.05 0.05 0.03 0.03 0.01 0.00 0.02 0.01 0.00 0.00 0.00 0.00 0.00 0.00 0.00 0.00 0.00 0.00 0.00
0.00 0.00 0.00 0.02 0.02 0.01 0.04 0.08 0.12 0.14 0.08 0.04 0.04 0.04 0.01 0.01 0.07 0.08 0.05 0.03 0.13 0.13 0.11 0.09 0.06 0.06 0.09 0.09 0.06 0.03 0.02 0.04 0.12 0.08 0.00 0.00 0.00 0.00 0.00 0.00 0.00 0.00 0.00
0.00 0.00 0.00 0.01 0.02 0.01 0.01 0.00 0.01 0.03 0.05 0.02 0.02 0.02 0.01 0.01 0.04 0.10 0.09 0.07 0.09 0.17 0.18 0.20 0.19 0.10 0.11 0.21 0.11 0.03 0.02 0.03 0.05 0.16 0.11 0.05 0.03 0.02 0.01 0.00 0.00 0.00 0.00
0.00 0.00 0.00 0.00 0.01 0.01 0.01 0.00 0.00 0.00 0.02 0.03 0.02 0.02 0.01 0.01 0.03 0.10 0.22 0.17 0.13 0.13 0.22 0.21 0.24 0.23 0.19 0.22 0.19 0.10 0.10 0.09 0.05 0.08 0.10 0.10 0.14 0.10 0.04 0.03 0.01 0.00 0.00

GFSSE_prec_precacc24_072.txt.gz
Total_Precipitation_Accumulation
0.02 0.05 0.02 0.00 0.01 0.00 0.00 0.01 0.00 0.00 0.00 0.00 0.00 0.00 0.00 0.00 0.00 0.00 0.00 0.00 0.00 0.01 0.02 0.02 0.02 0.02 0.02 0.01 0.01 0.01 0.01 0.01 0.01 0.03 0.06 0.10 0.08 0.06 0.04 0.04 0.04 0.05 0.11
0.03 0.05 0.05 0.01 0.02 0.01 0.01 0.00 0.00 0.00 0.00 0.00 0.00 0.00 0.00 0.00 0.00 0.00 0.00 0.00 0.00 0.01 0.01 0.02 0.02 0.02 0.01 0.01 0.00 0.00 0.00 0.00 0.00 0.01 0.04 0.07 0.07 0.06 0.03 0.02 0.04 0.04 0.06
0.04 0.02 0.02 0.02 0.09 0.04 0.02 0.01 0.00 0.00 0.00 0.00 0.00 0.00 0.00 0.00 0.01 0.00 0.00 0.00 0.00 0.01 0.02 0.01 0.02 0.02 0.01 0.00 0.00 0.00 0.00 0.00 0.00 0.01 0.01 0.01 0.04 0.05 0.01 0.01 0.01 0.02 0.02
0.08 0.04 0.06 0.05 0.17 0.27 0.13 0.04 0.02 0.00 0.00 0.01 0.00 0.00 0.00 0.00 0.01 0.01 0.02 0.01 0.00 0.02 0.02 0.02 0.03 0.02 0.00 0.00 0.00 0.00 0.00 0.00 0.00 0.00 0.00 0.01 0.02 0.05 0.03 0.02 0.02 0.02 0.01
0.08 0.03 0.09 0.08 0.14 0.47 0.28 0.13 0.07 0.00 0.00 0.01 0.01 0.00 0.00 0.00 0.00 0.01 0.02 0.02 0.01 0.02 0.02 0.02 0.01 0.01 0.00 0.00 0.00 0.00 0.00 0.00 0.00 0.00 0.00 0.01 0.01 0.03 0.03 0.02 0.02 0.01 0.01
0.15 0.13 0.12 0.16 0.26 0.43 0.74 0.71 0.42 0.08 0.01 0.03 0.02 0.00 0.00 0.00 0.00 0.00 0.01 0.01 0.03 0.03 0.02 0.01 0.01 0.00 0.00 0.00 0.00 0.00 0.00 0.00 0.00 0.00 0.00 0.00 0.00 0.02 0.02 0.01 0.00 0.00 0.00
0.42 0.90 0.32 0.22 0.38 0.75 1.09 1.41 1.41 0.94 0.19 0.24 0.14 0.03 0.04 0.01 0.00 0.00 0.00 0.01 0.02 0.02 0.02 0.01 0.00 0.00 0.00 0.00 0.00 0.00 0.00 0.00 0.00 0.00 0.00 0.00 0.00 0.01 0.01 0.00 0.00 0.00 0.00
0.63 1.35 0.99 0.84 1.07 2.07 2.08 2.44 2.70 2.28 1.64 0.81 0.40 0.23 0.25 0.21 0.07 0.01 0.00 0.01 0.01 0.01 0.01 0.00 0.00 0.00 0.00 0.00 0.00 0.00 0.00 0.00 0.00 0.00 0.00 0.00 0.01 0.01 0.00 0.00 0.00 0.00 0.00
0.60 1.24 1.37 1.50 2.03 3.41 4.17 3.54 3.82 3.78 4.22 3.03 1.20 0.62 0.37 0.47 0.24 0.04 0.01 0.00 0.00 0.01 0.00 0.00 0.00 0.00 0.00 0.00 0.00 0.00 0.00 0.00 0.00 0.00 0.00 0.00 0.01 0.00 0.00 0.00 0.00 0.00 0.00
0.26 0.83 1.05 1.46 1.86 2.43 3.21 3.34 3.29 4.25 3.18 3.06 2.50 1.94 1.19 0.56 0.29 0.05 0.02 0.00 0.01 0.01 0.00 0.00 0.00 0.00 0.00 0.00 0.00 0.00 0.00 0.00 0.00 0.00 0.00 0.00 0.01 0.00 0.00 0.00 0.00 0.00 0.00
0.21 0.43 0.86 2.45 2.71 2.91 2.81 2.54 2.31 2.94 4.69 2.35 2.47 2.33 2.11 0.83 0.30 0.09 0.04 0.00 0.01 0.00 0.00 0.00 0.00 0.00 0.00 0.00 0.00 0.00 0.00 0.00 0.00 0.00 0.00 0.01 0.00 0.00 0.00 0.00 0.00 0.00 0.00
0.29 0.83 1.16 1.16 1.19 1.52 1.46 1.61 1.55 2.23 3.83 3.28 2.30 1.66 1.09 1.07 0.35 0.07 0.06 0.02 0.00 0.00 0.00 0.00 0.00 0.00 0.00 0.00 0.00 0.00 0.00 0.00 0.00 0.00 0.00 0.01 0.00 0.00 0.00 0.01 0.00 0.00 0.00
0.34 0.75 0.69 0.23 0.10 0.25 0.36 0.56 0.94 1.98 2.42 2.85 1.87 1.49 0.88 0.65 0.33 0.09 0.07 0.03 0.00 0.00 0.00 0.00 0.00 0.00 0.00 0.00 0.00 0.00 0.00 0.00 0.00 0.00 0.00 0.01 0.01 0.01 0.01 0.01 0.01 0.00 0.00
0.36 0.31 0.32 0.15 0.08 0.03 0.09 0.25 0.47 1.01 2.12 1.74 1.73 1.37 1.01 0.31 0.11 0.06 0.02 0.01 0.00 0.00 0.00 0.00 0.00 0.00 0.00 0.00 0.00 0.00 0.00 0.00 0.00 0.00 0.00 0.00 0.01 0.00 0.01 0.01 0.01 0.00 0.00
0.32 0.23 0.14 0.13 0.09 0.02 0.02 0.05 0.20 0.48 1.78 1.11 1.84 1.14 0.96 0.10 0.04 0.03 0.03 0.02 0.00 0.00 0.00 0.00 0.00 0.00 0.00 0.00 0.00 0.00 0.00 0.00 0.00 0.00 0.00 0.00 0.01 0.01 0.01 0.01 0.01 0.01 0.00
0.18 0.22 0.23 0.15 0.09 0.03 0.01 0.01 0.07 0.36 0.89 0.92 1.62 0.83 0.95 0.07 0.04 0.04 0.05 0.02 0.00 0.00 0.00 0.00 0.00 0.00 0.00 0.00 0.00 0.00 0.00 0.00 0.00 0.00 0.00 0.00 0.00 0.01 0.02 0.02 0.02 0.02 0.00
0.11 0.12 0.25 0.32 0.11 0.07 0.01 0.02 0.03 0.31 0.63 0.62 0.99 0.60 0.50 0.08 0.04 0.03 0.04 0.03 0.00 0.00 0.00 0.00 0.00 0.00 0.00 0.00 0.00 0.00 0.00 0.00 0.00 0.00 0.00 0.00 0.00 0.00 0.01 0.03 0.02 0.02 0.02
0.03 0.13 0.30 0.28 0.31 0.19 0.03 0.02 0.02 0.22 0.49 0.53 0.66 0.50 0.35 0.08 0.03 0.04 0.05 0.02 0.00 0.00 0.00 0.00 0.00 0.00 0.00 0.00 0.00 0.00 0.00 0.00 0.00 0.00 0.00 0.00 0.00 0.00 0.00 0.01 0.02 0.03 0.02
0.00 0.04 0.33 0.42 0.27 0.15 0.05 0.06 0.07 0.12 0.34 0.39 0.48 0.37 0.21 0.06 0.02 0.02 0.07 0.06 0.02 0.03 0.00 0.00 0.00 0.00 0.00 0.00 0.00 0.00 0.00 0.00 0.00 0.00 0.00 0.00 0.00 0.00 0.00 0.00 0.00 0.01 0.03
0.00 0.01 0.14 0.63 0.40 0.22 0.16 0.11 0.23 0.16 0.25 0.25 0.30 0.29 0.14 0.05 0.02 0.01 0.02 0.07 0.08 0.05 0.02 0.00 0.00 0.00 0.00 0.00 0.00 0.00 0.00 0.00 0.00 0.00 0.00 0.00 0.00 0.00 0.00 0.00 0.00 0.00 0.00
0.00 0.01 0.04 0.35 0.53 0.26 0.23 0.17 0.24 0.25 0.19 0.17 0.16 0.19 0.12 0.04 0.03 0.02 0.01 0.04 0.02 0.07 0.06 0.01 0.00 0.00 0.00 0.00 0.00 0.00 0.00 0.00 0.00 0.00 0.00 0.00 0.00 0.00 0.00 0.00 0.00 0.00 0.00
0.00 0.00 0.01 0.17 0.29 0.32 0.27 0.18 0.11 0.16 0.23 0.14 0.12 0.14 0.15 0.06 0.02 0.06 0.05 0.05 0.03 0.07 0.09 0.04 0.02 0.02 0.01 0.00 0.00 0.00 0.00 0.00 0.00 0.00 0.00 0.00 0.00 0.00 0.00 0.00 0.00 0.00 0.00
0.00 0.00 0.01 0.03 0.07 0.13 0.27 0.24 0.21 0.21 0.21 0.28 0.18 0.14 0.16 0.09 0.04 0.03 0.04 0.07 0.07 0.07 0.07 0.05 0.04 0.05 0.03 0.03 0.01 0.00 0.02 0.01 0.00 0.00 0.00 0.00 0.00 0.00 0.00 0.00 0.00 0.00 0.00
0.00 0.00 0.00 0.02 0.02 0.01 0.05 0.08 0.12 0.14 0.08 0.04 0.05 0.06 0.05 0.06 0.09 0.06 0.03 0.03 0.07 0.07 0.12 0.10 0.07 0.06 0.09 0.09 0.06 0.03 0.02 0.04 0.12 0.08 0.00 0.00 0.00 0.00 0.00 0.00 0.00 0.00 0.00
0.00 0.00 0.00 0.01 0.02 0.01 0.01 0.00 0.01 0.04 0.05 0.02 0.02 0.03 0.03 0.05 0.05 0.10 0.06 0.04 0.07 0.09 0.16 0.22 0.19 0.10 0.10 0.21 0.11 0.03 0.02 0.02 0.05 0.16 0.11 0.05 0.03 0.02 0.01 0.00 0.00 0.00 0.00
0.00 0.00 0.00 0.00 0.01 0.01 0.01 0.00 0.00 0.00 0.02 0.03 0.02 0.02 0.01 0.01 0.02 0.03 0.07 0.06 0.09 0.11 0.19 0.22 0.25 0.22 0.19 0.22 0.18 0.09 0.10 0.09 0.05 0.08 0.10 0.10 0.14 0.10 0.04 0.03 0.01 0.00 0.00

GFSSE_prec_precacc24_075.txt.gz
Total_Precipitation_Accumulation
0.01 0.04 0.01 0.00 0.01 0.00 0.00 0.00 0.00 0.00 0.00 0.00 0.00 0.00 0.00 0.00 0.00 0.00 0.00 0.00 0.00 0.01 0.02 0.02 0.02 0.02 0.03 0.02 0.02 0.05 0.02 0.02 0.01 0.03 0.07 0.12 0.09 0.07 0.05 0.05 0.04 0.05 0.11
0.01 0.02 0.02 0.00 0.02 0.01 0.01 0.00 0.00 0.00 0.00 0.00 0.00 0.00 0.00 0.00 0.00 0.00 0.00 0.00 0.00 0.01 0.01 0.02 0.02 0.03 0.03 0.01 0.00 0.00 0.00 0.00 0.01 0.02 0.07 0.10 0.09 0.07 0.04 0.02 0.04 0.04 0.06
0.02 0.02 0.02 0.01 0.02 0.03 0.02 0.01 0.00 0.00 0.00 0.00 0.00 0.00 0.00 0.00 0.01 0.00 0.00 0.00 0.00 0.01 0.02 0.01 0.03 0.04 0.03 0.00 0.00 0.00 0.00 0.00 0.00 0.01 0.02 0.02 0.05 0.06 0.03 0.01 0.02 0.02 0.02
0.04 0.02 0.03 0.04 0.03 0.13 0.07 0.04 0.02 0.00 0.00 0.00 0.00 0.00 0.00 0.00 0.01 0.01 0.02 0.01 0.01 0.02 0.02 0.02 0.05 0.04 0.02 0.00 0.00 0.00 0.00 0.00 0.00 0.00 0.00 0.01 0.03 0.05 0.03 0.02 0.02 0.02 0.02
0.08 0.03 0.09 0.08 0.10 0.20 0.12 0.08 0.07 0.00 0.00 0.00 0.00 0.00 0.00 0.00 0.00 0.01 0.02 0.02 0.01 0.02 0.02 0.02 0.04 0.04 0.01 0.00 0.00 0.00 0.00 0.00 0.00 0.00 0.00 0.01 0.02 0.03 0.03 0.02 0.02 0.01 0.01
0.14 0.13 0.12 0.15 0.23 0.14 0.35 0.54 0.40 0.08 0.01 0.02 0.02 0.00 0.00 0.00 0.00 0.00 0.01 0.01 0.03 0.04 0.03 0.03 0.02 0.02 0.01 0.00 0.00 0.00 0.00 0.00 0.00 0.00 0.00 0.01 0.01 0.03 0.02 0.01 0.00 0.00 0.01
0.36 0.87 0.31 0.19 0.26 0.48 0.73 1.00 1.33 0.94 0.19 0.23 0.13 0.03 0.04 0.01 0.00 0.00 0.00 0.01 0.03 0.03 0.03 0.02 0.01 0.01 0.00 0.00 0.00 0.00 0.00 0.00 0.00 0.00 0.00 0.00 0.01 0.02 0.01 0.01 0.01 0.00 0.00
0.50 1.29 0.93 0.70 0.64 0.83 1.21 1.76 2.61 2.45 1.78 0.89 0.45 0.32 0.34 0.28 0.11 0.02 0.01 0.01 0.03 0.03 0.02 0.01 0.01 0.00 0.00 0.00 0.00 0.00 0.00 0.00 0.00 0.00 0.00 0.00 0.01 0.01 0.01 0.01 0.00 0.00 0.00
0.53 1.17 1.15 1.31 1.77 1.56 1.92 2.41 3.64 3.99 5.02 4.35 2.11 1.13 0.76 0.83 0.54 0.21 0.09 0.03 0.02 0.01 0.00 0.00 0.00 0.00 0.00 0.00 0.00 0.00 0.00 0.00 0.00 0.00 0.00 0.00 0.01 0.00 0.01 0.00 0.00 0.00 0.00
0.16 0.79 0.94 1.13 1.55 1.47 1.72 2.37 3.04 4.42 3.56 4.65 4.17 2.68 1.58 1.06 0.77 0.38 0.17 0.03 0.04 0.01 0.00 0.00 0.00 0.00 0.00 0.00 0.00 0.00 0.00 0.00 0.00 0.00 0.00 0.00 0.01 0.00 0.01 0.00 0.00 0.00 0.00
0.12 0.30 0.58 1.88 2.07 1.95 1.79 1.86 2.14 2.96 4.93 2.50 2.64 2.62 2.39 1.09 0.69 0.41 0.21 0.03 0.04 0.01 0.00 0.00 0.00 0.00 0.00 0.00 0.00 0.00 0.00 0.00 0.00 0.00 0.00 0.01 0.01 0.00 0.01 0.00 0.00 0.00 0.00
0.17 0.55 0.79 0.84 1.15 1.42 1.14 1.14 1.39 2.16 3.80 3.33 2.34 1.67 1.10 1.17 0.61 0.32 0.25 0.07 0.03 0.00 0.00 0.00 0.00 0.00 0.00 0.00 0.00 0.00 0.00 0.00 0.00 0.00 0.00 0.01 0.00 0.00 0.01 0.01 0.00 0.00 0.00
0.27 0.57 0.54 0.18 0.09 0.25 0.35 0.47 0.75 1.87 2.34 2.78 1.82 1.49 0.88 0.78 0.67 0.32 0.21 0.09 0.01 0.00 0.00 0.00 0.00 0.00 0.00 0.00 0.00 0.00 0.00 0.00 0.00 0.00 0.00 0.01 0.01 0.01 0.01 0.01 0.00 0.00 0.00
0.27 0.20 0.27 0.12 0.05 0.03 0.10 0.23 0.39 0.97 2.08 1.71 1.71 1.37 1.01 0.37 0.42 0.20 0.06 0.02 0.00 0.00 0.00 0.00 0.00 0.00 0.00 0.00 0.00 0.00 0.00 0.00 0.00 0.00 0.00 0.00 0.01 0.01 0.01 0.01 0.01 0.00 0.00
0.24 0.12 0.06 0.07 0.07 0.02 0.02 0.06 0.20 0.47 1.78 1.11 1.84 1.14 0.96 0.13 0.19 0.09 0.03 0.02 0.00 0.00 0.00 0.00 0.00 0.00 0.00 0.00 0.00 0.00 0.00 0.00 0.00 0.00 0.00 0.00 0.01 0.01 0.01 0.01 0.01 0.00 0.00
0.11 0.10 0.10 0.10 0.08 0.03 0.01 0.01 0.06 0.36 0.89 0.92 1.62 0.83 1.04 0.10 0.11 0.06 0.05 0.02 0.00 0.00 0.00 0.00 0.00 0.00 0.00 0.00 0.00 0.00 0.00 0.00 0.00 0.00 0.00 0.00 0.00 0.01 0.02 0.02 0.02 0.01 0.00
0.07 0.08 0.16 0.27 0.10 0.06 0.01 0.01 0.03 0.31 0.63 0.62 0.99 0.60 0.86 0.23 0.08 0.05 0.04 0.03 0.00 0.00 0.00 0.00 0.00 0.00 0.00 0.00 0.00 0.00 0.00 0.00 0.00 0.00 0.00 0.00 0.00 0.00 0.01 0.03 0.02 0.02 0.01
0.02 0.05 0.08 0.17 0.24 0.16 0.02 0.01 0.02 0.22 0.49 0.54 0.67 0.51 0.65 0.44 0.06 0.05 0.05 0.02 0.00 0.00 0.00 0.00 0.00 0.00 0.00 0.00 0.00 0.00 0.00 0.00 0.00 0.00 0.00 0.00 0.00 0.00 0.00 0.01 0.02 0.03 0.02
0.00 0.03 0.11 0.16 0.18 0.07 0.05 0.05 0.05 0.12 0.34 0.44 0.56 0.46 0.61 0.47 0.07 0.03 0.07 0.06 0.02 0.03 0.00 0.00 0.00 0.00 0.00 0.00 0.00 0.00 0.00 0.00 0.00 0.00 0.00 0.00 0.00 0.00 0.00 0.00 0.00 0.01 0.02
0.00 0.01 0.06 0.33 0.29 0.16 0.16 0.09 0.19 0.13 0.25 0.32 0.53 0.47 0.56 0.32 0.08 0.02 0.02 0.06 0.08 0.05 0.02 0.00 0.00 0.00 0.00 0.00 0.00 0.00 0.00 0.00 0.00 0.00 0.00 0.00 0.00 0.00 0.00 0.00 0.00 0.00 0.00
0.00 0.01 0.03 0.22 0.44 0.23 0.21 0.16 0.19 0.19 0.19 0.18 0.22 0.36 0.49 0.37 0.12 0.02 0.00 0.04 0.02 0.07 0.06 0.01 0.00 0.00 0.00 0.00 0.00 0.00 0.00 0.00 0.00 0.00 0.00 0.00 0.00 0.00 0.00 0.00 0.00 0.00 0.00
0.00 0.00 0.01 0.16 0.28 0.32 0.26 0.17 0.10 0.14 0.23 0.15 0.12 0.18 0.25 0.19 0.14 0.08 0.05 0.05 0.03 0.07 0.09 0.04 0.02 0.02 0.01 0.00 0.00 0.00 0.00 0.00 0.00 0.00 0.00 0.00 0.00 0.00 0.00 0.00 0.00 0.00 0.00
0.00 0.00 0.01 0.03 0.07 0.13 0.27 0.24 0.21 0.20 0.21 0.28 0.18 0.16 0.21 0.12 0.09 0.10 0.05 0.07 0.07 0.07 0.07 0.05 0.04 0.04 0.02 0.03 0.01 0.00 0.02 0.01 0.00 0.00 0.00 0.00 0.00 0.00 0.00 0.00 0.00 0.00 0.00
0.00 0.00 0.00 0.02 0.02 0.01 0.05 0.08 0.12 0.14 0.09 0.04 0.05 0.07 0.23 0.14 0.14 0.11 0.07 0.03 0.07 0.07 0.12 0.08 0.04 0.05 0.08 0.09 0.06 0.03 0.02 0.04 0.12 0.08 0.00 0.00 0.00 0.00 0.00 0.00 0.00 0.00 0.00
0.00 0.00 0.00 0.01 0.02 0.01 0.01 0.00 0.01 0.04 0.05 0.02 0.02 0.03 0.12 0.24 0.12 0.19 0.13 0.08 0.08 0.10 0.15 0.20 0.17 0.08 0.08 0.19 0.11 0.03 0.02 0.02 0.04 0.16 0.11 0.05 0.03 0.02 0.01 0.00 0.00 0.00 0.00
0.00 0.00 0.00 0.00 0.01 0.01 0.01 0.00 0.00 0.00 0.02 0.03 0.02 0.02 0.02 0.10 0.14 0.09 0.13 0.12 0.09 0.11 0.19 0.20 0.24 0.21 0.18 0.22 0.18 0.09 0.09 0.08 0.05 0.08 0.10 0.10 0.14 0.10 0.04 0.03 0.01 0.00 0.00